EW4622 Weather Reports


time (UTC)temp
C
wind
direction
speed
KPH
gust
KPH
rain 1hr
cm
rain 24hr
cm
rain mn
cm
humidity
%
barometer
mb
20260507190036 15 309 0.0 3.2 0.03 0.10 0.05 59 1012.2
20260507184537 15 310 0.0 3.2 0.03 0.10 0.05 60 1012.2
20260507183041 16 310 0.0 4.8 0.00 0.08 0.05 60 1012.0
20260507181519 16 308 0.0 3.2 0.00 0.08 0.05 60 1012.1
20260507180028 17 233 0.0 3.2 0.00 0.08 0.05 60 1012.0
20260507174617 17 239 0.0 3.2 0.00 0.08 0.05 59 1011.9
20260507173016 17 236 0.0 4.8 0.00 0.08 0.05 59 1011.8
20260507171512 18 233 0.0 4.8 0.00 0.08 0.05 57 1011.7
20260507170007 18 241 0.0 4.8 0.00 0.08 0.05 56 1011.8
20260507164504 19 243 0.0 6.4 0.00 0.08 0.05 54 1011.9
20260507163003 19 243 0.0 4.8 0.00 0.08 0.05 53 1011.9
20260507161603 19 250 0.0 3.2 0.00 0.08 0.05 52 1011.9
20260507160050 19 236 1.6 11.3 0.00 0.10 0.05 49 1011.9
20260507154550 19 223 0.0 6.4 0.00 0.10 0.05 50 1011.8
20260507153055 19 235 0.0 6.4 0.00 0.10 0.05 49 1011.9
20260507151547 19 248 3.2 11.3 0.00 0.10 0.05 49 1011.9
20260507150050 19 233 3.2 9.7 0.00 0.13 0.05 49 1012.0
20260507144548 20 250 3.2 8.0 0.03 0.13 0.05 51 1012.2
20260507143047 20 238 3.2 9.7 0.03 0.13 0.05 48 1012.2
20260507141524 20 223 3.2 12.9 0.03 0.13 0.05 50 1012.3
20260507140021 20 240 1.6 11.3 0.03 0.15 0.05 51 1012.5
20260507134503 20 235 1.6 11.3 0.00 0.13 0.03 54 1012.6
20260507133106 20 271 3.2 9.7 0.03 0.13 0.03 54 1012.6
20260507131548 20 193 0.0 8.0 0.03 0.13 0.03 58 1012.8
20260507130046 20 234 1.6 8.0 0.03 0.15 0.03 58 1012.7
20260507124544 20 212 1.6 11.3 0.03 0.15 0.03 59 1012.8
20260507123045 19 225 1.6 8.0 0.00 0.13 0.00 62 1012.7
20260507121543 19 206 1.6 8.0 0.00 0.13 0.00 63 1012.8
20260507120043 18 223 1.6 6.4 0.00 0.15 0.00 65 1012.9
20260507114534 18 235 1.6 6.4 0.00 0.15 0.00 64 1012.9
20260507113041 18 238 1.6 9.7 0.00 0.15 0.00 65 1013.1
20260507111517 17 253 1.6 8.0 0.00 0.15 0.00 66 1013.3
20260507110015 17 210 3.2 14.5 0.00 0.20 0.00 65 1013.5
20260507104514 17 187 3.2 8.0 0.00 0.20 0.00 62 1013.5
20260507103008 -17 0.0 0.0 0.00 0.20 0.00 1013.7
20260507101507 -17 0.0 0.0 0.00 0.20 0.00 1013.8
20260507100105 -17 0.0 0.0 0.00 0.20 0.00 1013.8
20260507094557 -17 0.0 0.0 0.00 0.20 0.00 1013.7
20260507093049 -17 0.0 0.0 0.00 0.20 0.00 1013.7
20260507091547 -17 0.0 0.0 0.00 0.20 0.00 1013.7
20260507090029 -17 0.0 0.0 0.00 0.20 0.00 1013.9
20260507084525 -17 0.0 0.0 0.00 0.20 0.00 1013.9
20260507083022 -17 0.0 0.0 0.00 0.20 0.00 1013.7
20260507081516 -17 0.0 0.0 0.00 0.20 0.00 1013.8
20260507080012 -17 0.0 0.0 0.00 0.20 0.20 1013.6
20260507074508 -17 0.0 0.0 0.00 0.20 0.20 1013.6
20260507073003 -17 0.0 0.0 0.00 0.20 0.20 1013.5
20260507071559 -17 0.0 0.0 0.00 0.20 0.20 1013.4
20260507070044 -17 0.0 0.0 0.00 0.20 0.20 1013.2
20260507064545 -17 0.0 0.0 0.00 0.20 0.20 1013.1
20260507063045 -17 0.0 0.0 0.00 0.20 0.20 1013.1
20260507061536 -17 0.0 0.0 0.00 0.20 0.20 1013.0
20260507060025 -17 0.0 0.0 0.00 0.20 0.20 1012.8
20260507054521 -17 0.0 0.0 0.00 0.20 0.20 1012.7
20260507053021 -17 0.0 0.0 0.00 0.20 0.20 1012.6
20260507051513 -17 0.0 0.0 0.00 0.20 0.20 1012.6
20260507050100 -17 0.0 0.0 0.00 0.20 0.20 1012.4
20260507044601 -17 0.0 0.0 0.00 0.20 0.20 1012.3
20260507043058 -17 0.0 0.0 0.00 0.20 0.20 1012.2
20260507041601 -17 0.0 0.0 0.00 0.20 0.20 1012.0
20260507040106 -17 0.0 0.0 0.00 0.20 0.20 1011.9
20260507034619 -17 0.0 0.0 0.00 0.20 0.20 1012.0
20260507033106 -17 0.0 0.0 0.00 0.20 0.20 1012.0
20260507031556 -17 0.0 0.0 0.00 0.20 0.20 1012.0
20260507030044 -17 0.0 0.0 0.00 0.20 0.20 1012.1
20260507024553 -17 0.0 0.0 0.00 0.20 0.20 1012.0
20260507023043 -17 0.0 0.0 0.00 0.20 0.20 1012.2
20260507021540 10 229 0.0 0.0 0.00 0.20 0.20 1 1012.3
20260507020034 10 229 0.0 0.0 0.00 0.20 0.20 1 1012.2
20260507014530 10 229 0.0 0.0 0.00 0.20 0.20 1 1012.1
20260507013025 10 229 0.0 0.0 0.00 0.20 0.20 1 1012.1
20260507011521 10 229 0.0 0.0 0.00 0.20 0.20 1 1012.0
20260507010059 10 229 0.0 0.0 0.00 0.23 0.20 1 1012.1
20260507004555 10 229 0.0 1.6 0.00 0.23 0.20 1 1012.2
20260507003038 11 229 0.0 0.0 0.00 0.23 0.20 1 1012.1
20260507003013 11 229 0.0 0.0 0.00 0.23 0.20 1 1012.2
20260507000030 11 229 0.0 0.0 0.00 0.23 0.20 1 1012.2
20260506234542 11 229 0.0 0.0 0.00 0.23 0.20 1 1012.1
20260506233023 11 228 0.0 1.6 0.03 0.23 0.20 1 1012.4
20260506231522 11 229 0.0 0.0 0.03 0.23 0.20 1 1012.2
20260506230021 11 228 0.0 0.0 0.03 0.25 0.20 1 1012.1
20260506224525 11 228 0.0 1.6 0.03 0.25 0.20 1 1012.2
20260506223103 11 228 0.0 0.0 0.00 0.23 0.18 1 1012.2
20260506221554 11 228 0.0 0.0 0.00 0.23 0.18 1 1012.1
20260506220104 11 228 0.0 1.6 0.00 0.23 0.18 1 1011.9
20260506214546 12 229 0.0 1.6 0.00 0.23 0.18 1 1012.0
20260506213041 12 229 0.0 3.2 0.00 0.23 0.18 1 1012.2
20260506211542 12 229 0.0 1.6 0.00 0.23 0.18 1 1012.0
20260506210032 13 229 0.0 0.0 0.00 0.25 0.18 1 1011.9
20260506204531 13 229 0.0 0.0 0.00 0.25 0.18 1 1011.8
20260506203013 13 229 0.0 1.6 0.00 0.25 0.18 1 1011.7
20260506201506 13 229 0.0 1.6 0.00 0.25 0.18 1 1011.7
20260506200003 13 229 0.0 1.6 0.00 0.28 0.18 6 1011.5
20260506194601 14 229 0.0 1.6 0.00 0.28 0.18 10 1011.3
20260506193056 14 229 0.0 1.6 0.03 0.28 0.18 16 1011.0
20260506191548 14 229 0.0 3.2 0.03 0.28 0.18 21 1010.8